sat.trackr.live / text

‹ back to catalog

STARLINK-4316

NORAD 53471 · 2022-099G

PAYLOAD ACTIVE UNKNOWN

§ Identity

Operator
Country
US
Launch date
2022-08-12
Launch site
AFWTR
Launch vehicle
Mass (kg)
RCS (m²)

Purposes: comms

External: N2YO · Heavens-Above · Gunter

§ Orbital elements

Epoch: 2026-05-25T01:15:14.423328Z

Period
95.64 min
Inclination
97.4457°
Eccentricity
0.0002097
Mean motion
15.05649916 rev/d
Perigee alt
548.1 km
Apogee alt
551.0 km
Semi-major
6,927.6 km
B*
4.2501e-5
RAAN
266.0803°
Arg perigee
103.1078°
Mean anomaly
257.0383°
Rev number
20,753

§ Raw data

STARLINK-43161 53471U 22099G   26145.05225027  .00000555  00000+0  42501-4 0  99932 53471  97.4457 266.0803 0002097 103.1078 257.0383 15.05649916207532

JSON: /api/v1/satellites/53471 · /tle

For live sub-satellite position, see the globe view (requires WebGL).

§ Visibility from observer

Set your observer location to see the next 7 days of passes ≥ 10°. The values pass through the URL so the page stays shareable.

No JS? Fill the form by hand. The geolocation button needs JavaScript.